Regional Weather Roundup
Issued by NWS

Home | Current Version | Previous Version | Text Only | Print | Product List | Glossary On
Versions: 1 2 3 4 5 6 7 8 9 10 11 12 13 14 15 16 17 18 19 20 21 22 23 24 25 26 27 28 29 30 31 32 33 34 35 36 37 38 39 40 41 42 43 44 45 46 47 48 49 50
000
ASUS43 KDTX 301110
RWRMI
MICHIGAN HOURLY REGIONAL WEATHER ROUNDUP
NATIONAL WEATHER SERVICE DETROIT/PONTIAC MI
700 AM EDT THU MAR 30 2017

NOTE: "FAIR" INDICATES FEW OR NO CLOUDS BELOW 12,000 FEET WITH NO
SIGNIFICANT WEATHER AND/OR OBSTRUCTION TO VISIBILITY.

MIZ047>049-052>055-059>063-066>070-074>076-081>083-301200-
SOUTHEAST LOWER MICHIGAN

CITY           SKY/WX    TMP DP  RH WIND       PRES   REMARKS
ADRIAN         RAIN      40  34  79 E10       30.02R WCI  33
ALMA           FLURRIES  36  33  89 NE6       30.08R WCI  31
ANN ARBOR      CLOUDY    42  32  67 E16G24    29.99F
BAD AXE        CLOUDY    38  30  73 E8        30.12S WCI  32
CARO           CLOUDY    40  30  67 E14G22    30.06F WCI  32
DETROIT CITY   CLOUDY    41  32  70 E14G30    30.06S
DETROIT        CLOUDY    43  30  60 E20G28    30.01F
FLINT          LGT RAIN  39  34  82 E9        30.05S WCI  33
GROSSE ILE     CLOUDY    41  30  66 E16G26    30.00F
HILLSDALE      RAIN      37  34  87 E10G21    30.01R WCI  30
HOWELL         LGT RAIN  40  32  71 E9        30.03R WCI  35

CITY           SKY/WX    TMP DP  RH WIND       PRES   REMARKS
JACKSON        CLOUDY    41  34  76 SE7       30.05R HAZE
LAMBERTVILLE   CLOUDY    42  34  72 E12G24    29.96F
LANSING        RAIN      37  34  89 E7        30.03S FOG     WCI  32
LAPEER         RAIN      38  32  80 SE8G16    30.05F WCI  32
MASON          MIX PCPN  39  36  87 SE3       30.02S
MONROE         CLOUDY    41  33  73 E18G29    29.98F
MT. CLEMENS    CLOUDY    39  34  81 E17G24    30.05F WCI  30
PONTIAC        CLOUDY    39  32  76 E15G21    30.02F WCI  31
PORT HOPE        N/A     36  31  82 E14       30.12F WCI  27
PORT HURON     CLOUDY    39  27  60 E16G22    30.09F WCI  30
TRI CITIES     CLOUDY    39  33  79 E7        30.09R WCI  34
MIDLAND        CLOUDY    38  32  78 NE7       30.09R WCI  32
TROY           CLOUDY    41  30  65 E13G23    30.07S
SAGINAW HB     CLOUDY    41  30  65 E7        30.07S
$$
MIZ043>046-050>051-056>058-064>065-071>073-077>080-301200-
SOUTHWEST LOWER MICHIGAN

CITY           SKY/WX    TMP DP  RH WIND       PRES   REMARKS
BATTLE CREEK   RAIN      39  37  92 E10       30.00R FOG     WCI  32
BENTON HARBOR  LGT RAIN  41  38  89 E23G30    29.88F FOG
BIG RAPIDS     LGT SNOW  35  29  79 E7        30.06R WCI  29
COLDWATER      LGT RAIN  40  37  88 NE14      29.99F WCI  32
FREMONT        FLURRIES  35  31  85 E9        30.04R WCI  28
HOLLAND        HVY RAIN  38  32  79 E14G24    29.97F WCI  30
GRAND RAPIDS   RAIN      36  35  96 E15       30.01R FOG     WCI  27
IONIA          LGT SNOW  34  32  93 NE12      30.02S WCI  25
KALAMAZOO      LGT RAIN  40  35  83 E12G20    29.98S WCI  33
LUDINGTON      FLURRIES  37  29  73 E13       30.04F WCI  28
MARSHALL       RAIN      39  37  93 E9        30.02R WCI  33
MOUNT PLEASANT CLOUDY    36  30  79 NE6       30.08R WCI  31
MUSKEGON       RAIN      37  34  89 NE14      30.00F WCI  28
SOUTH HAVEN    LGT SNOW  39  38  95 E17G28    29.89F WCI  30
$$
MIZ016>042-301200-
NORTHERN LOWER MICHIGAN

CITY           SKY/WX    TMP DP  RH WIND       PRES   REMARKS
ALPENA         CLOUDY    35  29  78 E10       30.19F WCI  27
BEAVER ISLAND  CLOUDY    33  28  82 E10G17    30.16R WCI  25
BELLAIRE       CLOUDY    36  26  65 E6        30.11F WCI  31
CADILLAC       CLOUDY    34  28  77 E10       30.06S WCI  26
CHARLEVOIX     CLOUDY    34  27  74 E14       30.15F WCI  25
FRANKFORT      CLOUDY    37  26  67 E3        30.08S
GAYLORD        CLOUDY    33  25  72 E7        30.10F WCI  27
GRAYLING       CLOUDY    32  27  80 E10G17    30.11F WCI  24
HARBOR SPRINGS CLOUDY    33  27  77 NE14      30.14S WCI  23
HOUGHTON LAKE  CLOUDY    34  27  75 E9        30.09F WCI  27
MANISTEE       LGT RAIN  37  29  72 E7        30.06F WCI  32
OSCODA         CLOUDY    37  30  77 E9G16     30.15F WCI  30
PELLSTON       CLOUDY    34  25  69 E12       30.17F WCI  25
ROGERS CITY    CLOUDY    34  29  80 E10G17    30.19F WCI  26
TRAVERSE CITY  CLOUDY    37  26  64 E8        30.09F WCI  31
$$
MIZ007>008-015-301200-
EASTERN UPPER MICHIGAN

CITY           SKY/WX    TMP DP  RH WIND       PRES   REMARKS
KINROSS        PTCLDY    31  24  75 E16       30.20S WCI  20
MACKINAC ISLAN CLOUDY    32  28  83 E14G22    30.17F WCI  22
NEWBERRY       CLOUDY    31  24  74 NE6       30.17S WCI  26
S. S. MARIE    CLOUDY    34  22  61 E8        30.22S WCI  27
MUNISING         N/A     35  24  64 SE8       30.14F WCI  29
$$
MIZ004>006-011>014-085-301200-
CENTRAL UPPER MICHIGAN

CITY           SKY/WX    TMP DP  RH WIND       PRES   REMARKS
MANISTIQUE     CLOUDY    33  28  83 E12G17    30.15F WCI  24
ESCANABA       CLOUDY    35  26  69 E12       30.14S WCI  27
MENOMINEE      FLURRIES  33  30  88 E9        30.10F WCI  25
SAWYER-GWINN   CLOUDY    32  23  69 SE8       30.11F WCI  25
$$
MIZ001>003-009>011-084-301200-
WESTERN UPPER MICHIGAN

CITY           SKY/WX    TMP DP  RH WIND       PRES   REMARKS
IRON MOUNTAIN  CLOUDY    34  21  59 E7        30.08S WCI  28
HOUGHTON       CLOUDY    32  27  81 E8        30.11F WCI  25
COPPER HARBOR    N/A     35  25  66 S9        30.14F WCI  28
IRONWOOD       CLOUDY    35  24  64 E3        30.06F
$$

ABBREVIATIONS USED IN REMARKS
   TC - TEMPERATURE IN CELSIUS
  WCI - WIND CHILL INDEX
   HX - HEAT INDEX
  VSB - VISIBILITY





USA.gov is the U.S. government's official web portal to all federal, state and local government web resources and services.